User: anonymous   Login
Location: Caltech
(34.1382°N, 118.1253°W)
Time: 14:20:46
(UTC-08:00)
Language:

Cosmos 1975 - Orbit

View from above orbital plane
View from above orbital plane
View from above satellite
View from above satellite

Ground track
Ground track

The orbit data is extracted from the following two-line orbital elements,

1 19573U 88093A   17347.47573764  .00000608  00000-0  41450-4 0  9990
2 19573  82.5191 172.0048 0015392  51.6924 308.5684 15.04356643586765
Epoch (UTC): 13 December 2017 11:25:03
Eccentricity: 0.0015392
inclination: 82.5191°
perigee height: 543 km
apogee height: 564 km
right ascension of ascending node: 172.0048°
argument of perigee: 51.6924°
revolutions per day: 15.04356643
mean anomaly at epoch: 308.5684°
orbit number at epoch: 58676

The dashed part of the orbit path shows where the satellite is in the earth's shadow,  

DLR